Location: Mountain Grove
(34.0887°N, 86.6172°W)
Time: 00:24:35
(UTC+00:00)

Resurs 01 Rocket - Pass Details

Date: 14 July 2020
Orbit: 635 x 644 km, 98.0° (Epoch: 12 August)

Event Time Altitude Azimuth Distance (km) Brightness Sun altitude
Exits shadow 01:31:17 - 121° (ESE) 2,174 3.6 -6.6°
Reaches altitude 10° 01:31:47 10° 117° (ESE) 2,019 3.5 -6.7°
Maximum altitude 01:35:01 20° 69° (ENE) 1,455 3.1 -7.3°
Drops below altitude 10° 01:38:15 10° 22° (NNE) 2,025 4.4 -7.8°
Sets 01:40:54 0° 6° (N) 2,937 5.4 -8.3°
